Flag for Tanzania Weather past 2 weeks in Bukoba, Tanzania

Now
64 °F

Passing clouds.


Feels Like: 64 °F
Forecast: 60 / 81 °F
Wind: 9 mph from West

Location: Bukoba

Current Time: Aug 22, 2014 at 2:05:52 AM

Latest Report: Aug 22, 2014 at 12:00 AM


Visibility: N/A

Pressure: 30.07 "Hg

Humidity: 83%

Dew point: 59 °F

Location of BukobaLocation

Historic Weather in Bukoba — Graph

°F

Bukoba temperature yesterday

Maximum temperature yesterday: 79 °F (at 2:00 PM)
Minimum temperature yesterday: 64 °F (at 12:00 AM)
Average temperature yesterday: 72 °F

Past Weeks' High & Low Weather Summary

 TemperatureHumidityPressure
High79 °F (Aug 9, 1:00 PM)100% (Aug 16, 10:00 AM)30.15 "Hg (Aug 16, 10:00 AM)
Low63 °F (Aug 14, 7:00 AM)39% (Aug 11, 5:00 PM)29.98 "Hg (Aug 10, 5:00 PM)
Average72 °F77%30.06 "Hg
* Reported Aug 7 6:00 AM — Midnight between Aug 21 and Aug 22, Bukoba, Weather by CustomWeather, © 2014

Note: Actual official high and low records may vary slightly from our data, if they occured in-between our weather recording intervals... More about our weather records

Advertising

Bukoba weather history for previous 24 hours

 ConditionsComfort  
Time TempWeatherWind HumidityBarometerVisibility
12:00 AM
Aug 22
64 °FPassing clouds.9 mph83%30.07 "HgN/A
11:00 PM
Aug 21
66 °FPassing clouds.6 mph78%30.01 "HgN/A
10:00 PM68 °FPassing clouds.No wind83%30.01 "HgN/A
9:00 PM70 °FPassing clouds.No wind78%30.01 "HgN/A
8:00 PM72 °FPassing clouds.No wind78%29.98 "HgN/A
7:00 PM73 °FPassing clouds.No wind74%29.98 "HgN/A
6:00 PM75 °FPassing clouds.3 mph61%29.98 "HgN/A
5:00 PM77 °FPassing clouds.3 mph61%29.98 "HgN/A
4:00 PM77 °FPassing clouds.3 mph61%29.98 "HgN/A
3:00 PM77 °FBroken clouds.No wind65%30.01 "HgN/A
2:00 PM79 °FWarm.3 mph58%30.04 "HgN/A
1:00 PM77 °FPassing clouds.3 mph61%30.07 "HgN/A
12:00 PM77 °FPassing clouds.3 mph74%30.09 "HgN/A
11:00 AM77 °FPassing clouds.3 mph74%30.09 "HgN/A
10:00 AM75 °FPassing clouds.3 mph78%30.09 "HgN/A
9:00 AM72 °FScattered clouds.3 mph73%30.09 "HgN/A
8:00 AM66 °FScattered clouds.3 mph83%30.07 "HgN/A
7:00 AM64 °FPassing clouds.6 mph83%30.04 "HgN/A
6:00 AM64 °FPassing clouds.3 mph83%30.04 "HgN/A
Weather by CustomWeather, © 2014

See weather overviewHow to use our weather pages